�������l�o���
Date,Time,MP-1(��Sv/h),MP-2(��Sv/h),MP-3(��Sv/h),MP-4(��Sv/h),MP-5(��Sv/h),MP-6(��Sv/h),MP-7(��Sv/h),MP-8(��Sv/h),����,����(m/s),���J
2017/03/14,00:00,1.066,1.749,1.186,2.076,1.451,0.557,1.024,0.950,�k��,2.3,��
2017/03/14,00:10,1.067,1.749,1.186,2.075,1.449,0.558,1.025,0.950,�k�k��,1.7,��
2017/03/14,00:20,1.065,1.749,1.187,2.075,1.447,0.559,1.025,0.948,�k�k��,2.6,��
2017/03/14,00:30,1.067,1.749,1.187,2.076,1.451,0.557,1.025,0.949,�k�k��,2.6,��
2017/03/14,00:40,1.065,1.749,1.189,2.072,1.450,0.557,1.027,0.950,�k�k��,2.5,��
2017/03/14,00:50,1.067,1.750,1.188,2.077,1.450,0.559,1.026,0.950,�k�k��,2.8,��
2017/03/14,01:00,1.068,1.749,1.189,2.076,1.448,0.558,1.025,0.950,�k�k��,2.2,��
2017/03/14,01:10,1.067,1.751,1.186,2.075,1.448,0.558,1.024,0.949,�k,2.9,��
2017/03/14,01:20,1.065,1.748,1.189,2.075,1.448,0.557,1.027,0.950,�k,2.8,��
2017/03/14,01:30,1.069,1.750,1.187,2.076,1.451,0.557,1.026,0.950,�k�k��,3.0,�L
2017/03/14,01:40,1.064,1.748,1.187,2.076,1.450,0.558,1.023,0.948,�k�k��,2.8,�L
2017/03/14,01:50,1.065,1.749,1.186,2.078,1.450,0.558,1.024,0.951,�k�k��,3.1,��
2017/03/14,02:00,1.065,1.749,1.186,2.072,1.449,0.559,1.025,0.949,�k��,3.4,��
2017/03/14,02:10,1.064,1.749,1.187,2.076,1.447,0.558,1.026,0.948,�k�k��,3.1,��
2017/03/14,02:20,1.067,1.748,1.185,2.075,1.449,0.559,1.026,0.951,�k�k��,3.1,�L
2017/03/14,02:30,1.066,1.749,1.186,2.076,1.447,0.559,1.026,0.948,�k�k��,3.0,�L
2017/03/14,02:40,1.065,1.749,1.188,2.073,1.448,0.558,1.025,0.949,�k�k��,2.9,��
2017/03/14,02:50,1.066,1.747,1.187,2.072,1.446,0.557,1.026,0.950,�k�k��,2.3,�L
2017/03/14,03:00,1.066,1.748,1.184,2.074,1.447,0.558,1.025,0.950,�k�k��,2.8,�L
2017/03/14,03:10,1.064,1.748,1.187,2.075,1.445,0.558,1.026,0.948,�k,2.2,�L
2017/03/14,03:20,1.062,1.746,1.185,2.077,1.447,0.558,1.024,0.948,�k�k��,1.7,�L
2017/03/14,03:30,1.064,1.746,1.184,2.071,1.445,0.557,1.024,0.949,�k�k��,2.3,�L
2017/03/14,03:40,1.066,1.745,1.185,2.074,1.444,0.558,1.026,0.950,�k�k��,2.8,�L
2017/03/14,03:50,1.064,1.740,1.184,2.073,1.443,0.560,1.023,0.949,�k�k��,2.2,�L
2017/03/14,04:00,1.062,1.741,1.183,2.072,1.443,0.559,1.025,0.949,�k�k��,3.1,��
2017/03/14,04:10,1.061,1.739,1.185,2.069,1.443,0.557,1.024,0.951,�k��,2.8,�L
2017/03/14,04:20,1.061,1.738,1.182,2.071,1.438,0.558,1.025,0.949,�k�k��,3.3,�L
2017/03/14,04:30,1.059,1.737,1.180,2.068,1.437,0.556,1.025,0.949,�k�k��,3.3,��
2017/03/14,04:40,1.060,1.738,1.181,2.067,1.439,0.557,1.024,0.950,�k�k��,2.5,�L
2017/03/14,04:50,1.059,1.738,1.180,2.067,1.437,0.557,1.025,0.948,�k�k��,2.3,�L
2017/03/14,05:00,1.061,1.735,1.181,2.068,1.437,0.557,1.025,0.948,�k�k��,2.9,�L
2017/03/14,05:10,1.060,1.736,1.181,2.066,1.434,0.557,1.023,0.949,�k�k��,2.6,�L
2017/03/14,05:20,1.060,1.732,1.181,2.068,1.436,0.556,1.024,0.949,�k�k��,2.9,�L
2017/03/14,05:30,1.059,1.730,1.180,2.068,1.432,0.556,1.024,0.947,�k�k��,3.5,�L
2017/03/14,05:40,1.055,1.729,1.179,2.065,1.433,0.556,1.024,0.947,�k�k��,3.5,�L
2017/03/14,05:50,1.055,1.730,1.178,2.064,1.430,0.557,1.024,0.948,�k��,3.8,�L
2017/03/14,06:00,1.053,1.723,1.178,2.062,1.427,0.555,1.022,0.948,�k�k��,3.6,�L
2017/03/14,06:10,1.048,1.718,1.173,2.057,1.425,0.556,1.020,0.946,�k�k��,3.6,�L
2017/03/14,06:20,1.045,1.712,1.172,2.053,1.418,0.555,1.021,0.944,�k�k��,3.6,�L
2017/03/14,06:30,1.041,1.708,1.169,2.051,1.416,0.556,1.017,0.944,�k�k��,4.0,�L
2017/03/14,06:40,1.040,1.704,1.164,2.047,1.413,0.554,1.018,0.942,�k,2.6,�L
2017/03/14,06:50,1.035,1.701,1.166,2.044,1.410,0.553,1.017,0.943,�k,2.3,�L
2017/03/14,07:00,1.037,1.701,1.163,2.041,1.411,0.555,1.016,0.942,�k,2.3,�L
2017/03/14,07:10,1.038,1.698,1.165,2.041,1.410,0.553,1.018,0.944,��,1.4,�L
2017/03/14,07:20,1.037,1.699,1.164,2.040,1.409,0.554,1.016,0.942,�k��,1.9,�L
2017/03/14,07:30,1.036,1.698,1.162,2.043,1.406,0.553,1.017,0.944,�k�k��,1.2,�L
2017/03/14,07:40,1.035,1.696,1.164,2.039,1.405,0.554,1.015,0.941,���k��,2.5,�L
2017/03/14,07:50,1.036,1.695,1.163,2.035,1.401,0.554,1.015,0.938,�쓌,1.7,�L
2017/03/14,08:00,1.035,1.691,1.161,2.034,1.403,0.552,1.016,0.942,���쓌,5.1,�L
2017/03/14,08:10,1.036,1.693,1.159,2.033,1.400,0.551,1.014,0.941,���쓌,7.0,��
2017/03/14,08:20,1.037,1.693,1.161,2.033,1.401,0.552,1.014,0.939,���쓌,7.9,��
2017/03/14,08:30,1.035,1.693,1.162,2.030,1.398,0.549,1.015,0.938,���쓌,7.8,�L
2017/03/14,08:40,1.034,1.691,1.159,2.031,1.400,0.550,1.014,0.941,���쓌,9.3,�L
2017/03/14,08:50,1.032,1.686,1.160,2.030,1.395,0.550,1.013,0.939,��,6.7,�L
2017/03/14,09:00,1.032,1.683,1.157,2.026,1.393,0.548,1.010,0.941,��,6.7,�L
2017/03/14,09:10,1.030,1.686,1.154,2.023,1.392,0.549,1.012,0.939,��,7.4,�L
2017/03/14,09:20,1.030,1.682,1.153,2.024,1.391,0.550,1.011,0.940,��,7.5,�L
2017/03/14,09:30,1.029,1.685,1.153,2.022,1.389,0.549,1.012,0.938,��,8.7,�L
2017/03/14,09:40,1.029,1.684,1.151,2.022,1.388,0.549,1.010,0.938,��,9.2,�L
2017/03/14,09:50,1.029,1.684,1.151,2.016,1.382,0.549,1.009,0.935,��,10.0,�L
2017/03/14,10:00,1.025,1.676,1.146,2.010,1.377,0.547,1.009,0.937,��,10.2,�L
2017/03/14,10:10,1.025,1.679,1.147,2.008,1.379,0.548,1.007,0.937,��,10.8,��
2017/03/14,10:20,1.024,1.678,1.148,2.007,1.380,0.548,1.009,0.939,��,10.2,��
2017/03/14,10:30,1.023,1.680,1.147,2.006,1.384,0.549,1.010,0.937,��,10.0,��
2017/03/14,10:40,1.027,1.682,1.148,2.009,1.381,0.548,1.007,0.935,��,9.7,�L
2017/03/14,10:50,1.024,1.682,1.148,2.013,1.383,0.549,1.010,0.939,��,10.2,��
2017/03/14,11:00,1.028,1.684,1.149,2.007,1.385,0.549,1.012,0.940,��,10.6,��
2017/03/14,11:10,1.030,1.683,1.149,2.008,1.384,0.549,1.009,0.938,��,10.2,�L
2017/03/14,11:20,1.028,1.688,1.151,2.012,1.387,0.550,1.010,0.938,��,9.0,��
2017/03/14,11:30,1.028,1.686,1.150,2.010,1.385,0.547,1.011,0.939,��,10.2,��
2017/03/14,11:40,1.027,1.687,1.149,2.012,1.383,0.548,1.012,0.938,��,12.0,�L
2017/03/14,11:50,1.031,1.685,1.152,2.012,1.386,0.549,1.011,0.939,��,11.9,�L
2017/03/14,12:00,1.028,1.685,1.149,2.011,1.388,0.548,1.009,0.938,��,11.9,�L
2017/03/14,12:10,1.029,1.684,1.150,2.010,1.383,0.550,1.011,0.938,��,14.4,�L
2017/03/14,12:20,1.023,1.681,1.147,2.007,1.382,0.551,1.009,0.938,��,12.4,�L
2017/03/14,12:30,1.023,1.678,1.145,2.005,1.376,0.548,1.008,0.939,��,13.2,�L
2017/03/14,12:40,1.020,1.672,1.144,2.004,1.374,0.549,1.006,0.937,���k��,10.4,�L
2017/03/14,12:50,1.018,1.668,1.140,2.001,1.375,0.547,1.005,0.934,���k��,9.2,�L
2017/03/14,13:00,1.017,1.665,1.138,2.000,1.368,0.547,1.006,0.935,��,10.2,�L
2017/03/14,13:10,1.018,1.664,1.138,1.993,1.367,0.546,1.004,0.936,���k��,10.2,�L
2017/03/14,13:20,1.018,1.660,1.141,1.995,1.364,0.546,1.005,0.935,��,11.7,�L
2017/03/14,13:30,1.016,1.669,1.139,1.998,1.366,0.547,1.005,0.934,��,12.2,��
2017/03/14,13:40,1.020,1.672,1.140,1.997,1.368,0.547,1.007,0.936,���k��,11.1,��
2017/03/14,13:50,1.017,1.667,1.138,1.998,1.374,0.549,1.007,0.937,��,12.0,��
2017/03/14,14:00,1.019,1.671,1.142,1.995,1.374,0.550,1.006,0.934,��,12.0,��
2017/03/14,14:10,1.020,1.669,1.137,1.999,1.372,0.548,1.006,0.935,���k��,11.7,��
2017/03/14,14:20,1.018,1.669,1.142,1.996,1.373,0.549,1.007,0.936,��,11.0,�L
2017/03/14,14:30,1.017,1.672,1.139,1.999,1.374,0.547,1.008,0.935,���k��,11.8,�L
2017/03/14,14:40,1.021,1.671,1.143,1.997,1.374,0.547,1.006,0.935,��,10.0,�L
2017/03/14,14:50,1.020,1.670,1.140,1.997,1.372,0.549,1.005,0.936,���k��,11.8,�L
2017/03/14,15:00,1.017,1.669,1.140,1.997,1.370,0.547,1.005,0.935,���k��,10.5,�L
2017/03/14,15:10,1.016,1.666,1.137,1.997,1.369,0.546,1.006,0.933,���k��,9.4,�L
2017/03/14,15:20,1.018,1.664,1.136,1.993,1.368,0.547,1.006,0.932,���k��,10.7,�L
2017/03/14,15:30,1.014,1.662,1.136,1.991,1.363,0.548,1.004,0.934,���k��,9.4,�L
2017/03/14,15:40,1.011,1.661,1.134,1.988,1.366,0.547,1.003,0.934,���k��,9.2,�L
2017/03/14,15:50,1.010,1.664,1.136,1.991,1.362,0.546,1.004,0.933,���k��,8.4,�L
2017/03/14,16:00,1.011,1.658,1.130,1.994,1.362,0.546,1.005,0.933,�k��,7.9,�L
2017/03/14,16:10,1.010,1.656,1.132,1.989,1.359,0.544,1.002,0.933,�k��,6.2,�L
2017/03/14,16:20,1.012,1.656,1.130,1.987,1.359,0.546,1.005,0.932,�k��,5.8,�L
2017/03/14,16:30,1.009,1.649,1.130,1.985,1.354,0.549,1.004,0.932,�k��,7.8,�L
2017/03/14,16:40,1.009,1.642,1.126,1.974,1.349,0.547,1.003,0.930,�k��,6.9,�L
2017/03/14,16:50,1.005,1.634,1.122,1.963,1.344,0.545,0.999,0.929,�k�k��,4.8,�L
2017/03/14,17:00,1.002,1.628,1.119,1.955,1.338,0.544,0.996,0.926,�k�k��,4.0,�L
2017/03/14,17:10,1.002,1.626,1.115,1.948,1.331,0.542,0.994,0.925,�k�k��,10.2,�L
2017/03/14,17:20,1.002,1.620,1.114,1.944,1.329,0.541,0.995,0.924,�k��,9.5,�L
2017/03/14,17:30,0.997,1.617,1.114,1.942,1.327,0.543,0.994,0.922,�k�k��,7.5,�L
2017/03/14,17:40,0.997,1.616,1.111,1.937,1.328,0.539,0.994,0.922,�k�k��,7.3,�L
2017/03/14,17:50,0.996,1.613,1.113,1.941,1.331,0.539,0.992,0.924,���k��,7.5,�L
2017/03/14,18:00,0.997,1.616,1.112,1.938,1.332,0.540,0.994,0.923,�k��,7.7,�L
2017/03/14,18:10,0.993,1.613,1.110,1.936,1.328,0.539,0.994,0.924,�k��,7.9,�L
2017/03/14,18:20,0.993,1.612,1.109,1.934,1.327,0.538,0.994,0.923,�k�k��,8.2,�L
2017/03/14,18:30,0.996,1.612,1.106,1.932,1.324,0.538,0.991,0.924,�k�k��,6.6,�L
2017/03/14,18:40,0.994,1.607,1.104,1.927,1.318,0.538,0.991,0.923,�k��,7.1,�L
2017/03/14,18:50,0.991,1.609,1.102,1.927,1.320,0.538,0.992,0.922,�k�k��,5.9,�L
2017/03/14,19:00,0.990,1.605,1.101,1.921,1.316,0.536,0.990,0.922,�k��,6.0,�L
2017/03/14,19:10,0.991,1.604,1.099,1.922,1.317,0.538,0.988,0.923,�k,5.9,�L
2017/03/14,19:20,0.991,1.600,1.100,1.919,1.315,0.537,0.988,0.920,�k�k��,6.2,�L
2017/03/14,19:30,0.990,1.600,1.100,1.916,1.311,0.536,0.986,0.920,�k,8.9,�L
2017/03/14,19:40,0.988,1.598,1.100,1.916,1.312,0.535,0.987,0.918,�k�k��,8.2,�L
2017/03/14,19:50,0.989,1.602,1.098,1.918,1.310,0.537,0.986,0.919,�k�k��,9.5,�L
2017/03/14,20:00,0.991,1.604,1.098,1.917,1.311,0.536,0.985,0.919,�k,8.8,�L
2017/03/14,20:10,0.994,1.606,1.101,1.919,1.313,0.535,0.985,0.920,�k�k��,7.7,�L
2017/03/14,20:20,0.992,1.603,1.099,1.919,1.312,0.535,0.985,0.918,�k,7.6,�L
2017/03/14,20:30,0.994,1.605,1.097,1.921,1.312,0.535,0.988,0.919,�k�k��,8.3,�L
2017/03/14,20:40,0.991,1.607,1.100,1.919,1.312,0.535,0.987,0.921,�k�k��,9.1,�L
2017/03/14,20:50,0.991,1.608,1.097,1.921,1.314,0.534,0.987,0.919,�k�k��,7.2,�L
2017/03/14,21:00,0.991,1.605,1.097,1.920,1.314,0.535,0.987,0.920,�k�k��,6.1,�L
2017/03/14,21:10,0.992,1.610,1.100,1.921,1.316,0.534,0.985,0.919,�k��,8.4,�L
2017/03/14,21:20,0.990,1.609,1.098,1.919,1.315,0.534,0.988,0.920,�k�k��,8.8,�L
2017/03/14,21:30,0.990,1.611,1.100,1.920,1.317,0.535,0.986,0.920,�k�k��,8.9,�L
2017/03/14,21:40,0.990,1.609,1.097,1.920,1.314,0.534,0.984,0.918,�k�k��,7.6,�L
2017/03/14,21:50,0.992,1.609,1.098,1.918,1.313,0.533,0.987,0.917,�k�k��,8.0,�L
2017/03/14,22:00,0.989,1.611,1.098,1.920,1.313,0.535,0.985,0.918,�k�k��,8.0,�L
2017/03/14,22:10,0.991,1.608,1.098,1.919,1.312,0.534,0.985,0.918,�k�k��,8.6,�L
2017/03/14,22:20,0.991,1.607,1.100,1.917,1.313,0.536,0.987,0.917,�k�k��,9.3,�L
2017/03/14,22:30,0.991,1.610,1.099,1.923,1.312,0.534,0.985,0.918,�k�k��,7.3,�L
2017/03/14,22:40,0.990,1.606,1.097,1.919,1.311,0.533,0.985,0.918,�k�k��,7.9,�L
2017/03/14,22:50,0.990,1.605,1.096,1.916,1.310,0.536,0.983,0.918,�k�k��,8.2,�L
2017/03/14,23:00,0.987,1.602,1.097,1.915,1.311,0.535,0.985,0.916,�k�k��,9.0,�L
2017/03/14,23:10,0.987,1.600,1.099,1.914,1.309,0.537,0.984,0.919,�k�k��,10.3,�L
2017/03/14,23:20,0.986,1.601,1.097,1.914,1.309,0.537,0.983,0.917,�k�k��,8.1,�L
2017/03/14,23:30,0.985,1.599,1.095,1.911,1.306,0.535,0.983,0.917,�k��,7.0,�L
2017/03/14,23:40,0.986,1.596,1.092,1.908,1.304,0.533,0.982,0.915,�k�k��,10.0,�L
2017/03/14,23:50,0.980,1.593,1.093,1.906,1.302,0.532,0.982,0.917,�k�k��,8.7,�L
